Mount Holly, NJ

6:35 AM EST on December 06, 2019 (GMT -0500)
South Jersey Regional

Weather History for KVAY - September, 2019

Change the Weather History Date:

Saturday, September 7, 2019

  Actual Average (WUND) Record (WUND)
Temperature  
Mean Temperature 67 °F -  
Max Temperature 79 °F - - (-1)
Min Temperature 55 °F - - (-1)
Cooling Degree Days 2    
Growing Degree Days 17 (Base 50)    
Moisture  
Dew Point 55 °F    
Average Humidity 72    
Maximum Humidity 90    
Minimum Humidity 43    
Precipitation  
Precipitation 0.00 in - - ()
Sea Level Pressure  
Sea Level Pressure 29.83 in    
Wind  
Wind Speed 5 mph (NW)    
Max Wind Speed 9 mph    
Max Gust Speed 23 mph    
Visibility 10 miles    
Events      
Averages and records for this station are not official NWS values.
T = Trace of Precipitation, MM = Missing Value Source: NWS Daily Summary

Daily Weather History Graph

Daily Weather History Graph

Search for Another Location

Airport or City:

Astronomy

Sep. 07, 2019 Rise Set
Actual Time 6:32 AM EDT 7:21 PM EDT
Civil Twilight 6:05 AM EDT 7:48 PM EDT
Nautical Twilight 5:32 AM EDT 8:21 PM EDT
Astronomical Twilight 4:58 AM EDT 8:55 PM EDT
Moon 3:34 PM EDT (9/7) 12:22 AM EDT (9/7)
Length of Visible Light 13h 43m
Length of Day
12h 48m
Waxing Gibbous, 65% of the Moon is Illuminated
Sep 7
Waxing Gibbous
Sep 14
Full
Sep 21
Last Quarter
Sep 28
New
Oct 5
First Quarter

Hourly Weather History & Observations

Time (EDT) Temp. Dew Point Humidity Pressure Visibility Wind Dir Wind Speed Gust Speed Precip Events Conditions
12:28 AM 60.1 °F 55.9 °F 86% 29.77 in 10.0 mi NNW 6.9 mph - N/A   Overcast
12:54 AM 60.1 °F 55.0 °F 83% 29.76 in 10.0 mi North 8.1 mph - N/A   Mostly Cloudy
1:34 AM 60.1 °F 55.0 °F 83% 29.77 in 10.0 mi NNW 6.9 mph - N/A   Mostly Cloudy
1:54 AM 60.1 °F 55.0 °F 83% 29.77 in 10.0 mi NNW 8.1 mph - N/A   Overcast
2:46 AM 59.0 °F 55.0 °F 87% 29.76 in 10.0 mi NW 4.6 mph - N/A   Scattered Clouds
2:54 AM 59.0 °F 55.0 °F 87% 29.77 in 10.0 mi Variable 4.6 mph - N/A   Partly Cloudy
3:54 AM 57.0 °F 54.0 °F 89% 29.77 in 10.0 mi WNW 3.5 mph - N/A   Clear
4:54 AM 57.0 °F 54.0 °F 89% 29.78 in 10.0 mi Calm Calm - N/A   Clear
5:54 AM 57.0 °F 53.1 °F 87% 29.81 in 10.0 mi Variable 3.5 mph - N/A   Clear
6:54 AM 55.9 °F 53.1 °F 90% 29.83 in 10.0 mi Calm Calm - N/A   Clear
7:54 AM 59.0 °F 54.0 °F 83% 29.85 in 10.0 mi NW 4.6 mph - N/A   Clear
8:54 AM 63.0 °F 55.0 °F 75% 29.86 in 10.0 mi NNW 5.8 mph - N/A   Clear
9:54 AM 66.0 °F 53.1 °F 63% 29.86 in 10.0 mi WNW 6.9 mph - N/A   Clear
10:54 AM 70.0 °F 54.0 °F 57% 29.85 in 10.0 mi WNW 8.1 mph - N/A   Clear
12:54 PM 75.9 °F 57.0 °F 52% 29.84 in 10.0 mi Variable 6.9 mph - N/A   Clear
1:54 PM 78.1 °F 55.0 °F 45% 29.83 in 10.0 mi NW 9.2 mph - N/A   Partly Cloudy
2:54 PM 79.0 °F 55.9 °F 45% 29.82 in 10.0 mi NW 9.2 mph - N/A   Partly Cloudy
3:54 PM 77.0 °F 54.0 °F 45% 29.83 in 10.0 mi West 8.1 mph - N/A   Scattered Clouds
4:54 PM 78.1 °F 54.0 °F 43% 29.83 in 10.0 mi Variable 6.9 mph 23.0 mph N/A   Mostly Cloudy
5:54 PM 75.9 °F 54.0 °F 46% 29.85 in 10.0 mi West 6.9 mph 19.6 mph N/A   Mostly Cloudy
6:54 PM 75.0 °F 54.0 °F 48% 29.87 in 10.0 mi Variable 3.5 mph - N/A   Scattered Clouds
7:54 PM 68.0 °F 55.0 °F 63% 29.89 in 10.0 mi Calm Calm - N/A   Clear
8:54 PM 63.0 °F 55.9 °F 78% 29.91 in 10.0 mi Calm Calm - N/A   Clear
9:54 PM 61.0 °F 57.0 °F 87% 29.92 in 10.0 mi Calm Calm - N/A   Unknown
10:54 PM 63.0 °F 57.0 °F 81% 29.93 in 10.0 mi Calm Calm - N/A   Mostly Cloudy
11:54 PM 62.1 °F 57.0 °F 84% 29.93 in 10.0 mi SW 3.5 mph - N/A   Clear